WEATHER DATA

YESTERDAY
Time Temp. Dewp. Hum. Bar. 1h Prec. 24h Prec.
00:06 12.1 12.1 100 1015.7 0.0000 0.0000
00:16 12.1 12.1 100 1015.7 0.0000 0.0000
00:26 12.1 12.1 100 1015.7 0.0000 0.0000
00:36 12.2 12.2 100 1015.6 0.0000 0.0000
00:47 12.2 12.2 100 1015.5 0.0000 0.0000
00:56 12.2 12.2 100 1015.4 0.0000 0.0000
01:06 12.3 12.3 100 1015.4 0.0000 0.0000
01:17 12.3 12.3 100 1015.4 0.0000 0.0000
01:27 12.4 12.4 100 1015.3 0.0000 0.0000
01:37 12.4 12.4 100 1015.3 0.0000 0.0000
01:47 12.5 12.5 100 1015.3 0.0000 0.0000
01:57 12.5 12.5 100 1015.3 0.0000 0.0000
02:07 12.6 12.6 100 1015.3 0.0000 0.0000
02:17 12.6 12.6 100 1015.3 0.0000 0.0000
02:28 12.7 12.7 100 1015.3 0.0000 0.0000
02:38 12.7 12.7 100 1015.2 0.0000 0.0000
02:48 12.7 12.7 100 1015.2 0.0000 0.0000
02:57 12.8 12.8 100 1015.1 0.0000 0.0000
03:08 12.8 12.8 100 1015.1 0.0000 0.0000
03:18 12.8 12.8 100 1015 0.0000 0.0000
03:28 12.8 12.8 100 1015 0.0000 0.0000
03:38 12.8 12.8 100 1014.9 0.0000 0.0000
03:49 12.8 12.8 100 1014.9 0.0000 0.0000
03:58 12.8 12.8 100 1014.8 0.0000 0.0000
04:08 12.8 12.8 100 1014.8 0.0000 0.0000
04:19 12.8 12.8 100 1014.8 0.0000 0.0000
04:29 12.8 12.8 100 1014.8 0.0000 0.0000
04:39 12.8 12.8 100 1014.7 0.0000 0.0000
04:49 12.9 12.9 100 1014.7 0.0000 0.0000
05:00 12.9 12.9 100 1014.7 0.0000 0.0000
05:09 12.9 12.9 100 1014.6 0.0000 0.0000
05:19 13 13 100 1014.7 0.0000 0.0000
05:30 13 13 100 1014.6 0.0000 0.0000
05:40 13.1 13.1 100 1014.6 0.0000 0.0000
05:50 13.1 13.1 100 1014.7 0.0000 0.0000
06:00 13.2 13.2 100 1014.6 0.0000 0.0000
06:10 13.3 13.3 100 1014.5 0.0000 0.0000
06:20 13.3 13.3 100 1014.5 0.0000 0.0000
06:30 13.4 13.4 100 1014.5 0.0000 0.0000
06:40 13.4 13.4 100 1014.6 0.0000 0.0000
06:51 13.4 13.4 100 1014.9 0.0000 0.0000
07:01 13.4 13.4 100 1014.9 0.0000 0.0000
07:10 13.4 13.4 100 1014.9 0.0000 0.0000
07:21 13.5 13.5 100 1014.8 0.0000 0.0000
07:31 13.5 13.5 100 1014.9 0.0000 0.0000
07:41 13.5 13.5 100 1014.9 0.0000 0.0000
07:51 13.5 13.5 100 1014.9 0.0000 0.0000
08:01 13.5 13.5 100 1015 0.0000 0.0000
08:11 13.5 13.5 100 1015 0.0000 0.0000
08:21 13.5 13.5 100 1015 0.0000 0.0000
08:32 13.5 13.5 100 1015 0.0000 0.0000
08:42 13.5 13.5 100 1015 0.0000 0.0000
08:52 13.5 13.5 100 1015 0.0000 0.0000
09:02 13.6 13.6 100 1015 0.0000 0.0000
09:12 13.6 13.6 100 1015.1 0.0000 0.0000
09:22 13.6 13.6 100 1015.1 0.0000 0.0000
09:32 13.7 13.7 100 1015.1 0.0000 0.0000
09:42 13.7 13.7 100 1015.2 0.0000 0.0000
09:53 13.8 13.8 100 1015.3 0.0000 0.0000
10:02 13.8 13.8 100 1015.3 0.0000 0.0000
10:12 13.9 13.9 100 1015.3 0.0000 0.0000
10:23 13.9 13.9 100 1015.3 0.0000 0.0000
10:33 14 14 100 1015.3 0.0000 0.0000
10:42 14.1 14.1 100 1015.5 0.0000 0.0000
10:53 14.2 14.2 100 1015.5 0.0000 0.0000
11:03 14.3 14.3 100 1015.4 0.0000 0.0000
11:13 14.6 14.6 100 1015.5 0.0000 0.0000
11:22 14.7 14.7 100 1015.4 0.0000 0.0000
11:33 14.8 14.8 100 1015.4 0.0000 0.0000
11:43 15 15 100 1015.4 0.0000 0.0000
11:53 15.1 15.1 100 1015.3 0.0000 0.0000
12:03 15.2 15.2 100 1015.3 0.0000 0.0000
12:14 15.3 15.3 100 1015.3 0.0000 0.0000
12:23 15.3 15.3 100 1015.3 0.0000 0.0000
12:33 15.5 15.5 100 1015.3 0.0000 0.0000
12:44 15.6 15.6 100 1015.3 0.0000 0.0000
12:54 15.7 15.7 100 1015.3 0.0000 0.0000
13:04 15.8 15.6 99 1015.2 0.0000 0.0000
13:14 15.8 15.6 99 1015.2 0.0000 0.0000
13:24 15.8 15.5 98 1015.1 0.0000 0.0000
13:34 15.9 15.6 98 1015.1 0.0000 0.0000
13:44 15.9 15.6 98 1015 0.0000 0.0000
13:54 15.9 15.6 98 1015 0.0000 0.0000
14:04 16 15.7 98 1014.9 0.0000 0.0000
14:14 16.1 15.8 98 1014.8 0.0000 0.0000
14:24 16.1 15.6 97 1014.8 0.0000 0.0000
14:34 16.2 15.7 97 1014.7 0.0000 0.0000
14:44 16.2 15.7 97 1014.7 0.0000 0.0000
14:54 16.1 15.6 97 1014.8 0.0000 0.0000
15:05 16 15.5 97 1014.8 0.0000 0.0000
15:14 15.9 15.4 97 1014.9 0.0000 0.0000
15:24 15.8 15.3 97 1014.9 0.0000 0.0000
15:35 15.7 15.2 97 1015.1 0.0000 0.0000
15:45 15.6 15.1 97 1015 0.0000 0.0000
15:55 15.5 15 97 1015.1 0.0000 0.0000
16:05 15.3 14.8 97 1015.1 0.0000 0.0000
16:15 15.1 14.6 97 1015.1 0.0000 0.0000
16:25 15 14.7 98 1015.1 0.0000 0.0000
16:35 15 14.7 98 1015 0.0000 0.0000
16:45 14.9 14.6 98 1015.1 0.0000 0.0000
16:56 14.7 14.4 98 1015.1 0.0000 0.0000
17:05 14.7 14.4 98 1015.1 0.0000 0.0000
17:15 14.5 14.3 99 1015.2 0.0000 0.0000
17:26 14.3 14.1 99 1015.1 0.0000 0.0000
17:36 14.3 14.3 100 1015.1 0.0000 0.0000
17:46 14.2 14.2 100 1015.2 0.0000 0.0000
17:56 14.1 14.1 100 1015.3 0.0000 0.0000
18:06 14.1 14.1 100 1015.3 0.0000 0.0000
18:16 14 14 100 1015.4 0.0000 0.0000
18:26 14 14 100 1015.4 0.0000 0.0000
18:37 13.9 13.9 100 1015.4 0.0000 0.0000
18:46 13.9 13.9 100 1015.3 0.0000 0.0000
18:56 13.8 13.8 100 1015.3 0.0000 0.0000
19:06 13.8 13.8 100 1015.4 0.0000 0.0000
19:17 13.8 13.8 100 1015.5 0.0000 0.0000
19:27 13.8 13.8 100 1015.5 0.0000 0.0000
19:36 13.8 13.8 100 1015.5 0.0000 0.0000
19:47 13.8 13.8 100 1015.6 0.0000 0.0000
19:57 13.8 13.8 100 1015.6 0.0000 0.0000
20:07 13.8 13.8 100 1015.7 0.0000 0.0000
20:17 13.8 13.8 100 1015.8 0.0000 0.0000
20:28 13.8 13.8 100 1015.8 0.0000 0.0000
20:37 13.8 13.8 100 1015.9 0.0000 0.0000
20:47 13.8 13.8 100 1016 0.0000 0.0000
20:58 13.9 13.9 100 1016.1 0.0000 0.0000
21:08 13.8 13.8 100 1016.2 0.0000 0.0000
21:17 13.8 13.8 100 1016.2 0.0000 0.0000
21:27 13.8 13.8 100 1016.2 0.0000 0.0000
21:38 13.7 13.7 100 1016.2 0.0000 0.0000
21:48 13.7 13.7 100 1016.3 0.0000 0.0000
21:58 13.6 13.6 100 1016.3 0.0000 0.0000
22:18 13.5 13.5 100 1016.3 0.0000 0.0000
22:38 13.5 13.5 100 1016.3 0.0000 0.0000
22:49 13.4 13.4 100 1016.2 0.0000 0.0000
22:58 13.3 13.3 100 1016.3 0.0000 0.0000
23:08 13.3 13.3 100 1016.3 0.0000 0.0000
23:18 13.3 13.3 100 1016.4 0.0000 0.0000
23:29 13.2 13.2 100 1016.4 0.0000 0.0000
23:39 13.1 13.1 100 1016.5 0.0000 0.0000
23:48 13.1 13.1 100 1016.5 0.0000 0.0000

DAY STATISTIC

2018-10-17
TEMPERATURE
AVERAGE
13.9
HIGH
16.2
14:34
LOW
12.1
00:06
PRESSURE
AVERAGE
1015.3
HIGH
1016.5
23:39
LOW
1014.5
06:10
DEWPOINT
AVERAGE
13.8
HIGH
15.8
14:14
LOW
12.1
00:06
HUMIDITY
AVERAGE
100
HIGH
100
00:06
LOW
97
14:24
PRECIPITATION
RAIN HOUR
0.0
RAIN DAY
0.0
TEMPERATURE (°C)
LOW
12.1
HIGH
16.2
AVERAGE
13.9
PRESSURE (hpa)
LOW
1014.5
HIGH
1016.5
AVERAGE
1015.3
DEVICE